Precipitable_Water
0.23 0.20 0.20 0.21 0.21 0.24 0.25 0.27 0.23 0.22 0.25 0.31 0.37 0.41 0.45 0.52 0.57 0.61 0.62 0.66 0.70 0.71 0.78 0.86 0.93 1.00 1.10 1.18 1.28 1.36 1.37 1.34 1.36 1.46 1.66 1.77 1.60 1.55 1.44 1.24 1.21 1.16 1.14 1.11
0.23 0.23 0.19 0.22 0.25 0.26 0.27 0.30 0.29 0.31 0.31 0.38 0.40 0.49 0.47 0.51 0.55 0.58 0.58 0.58 0.64 0.74 0.76 0.83 0.90 0.93 1.04 1.13 1.18 1.26 1.27 1.22 1.36 1.56 1.65 1.91 1.85 1.62 1.59 1.33 1.28 1.17 1.18 1.15
0.21 0.25 0.21 0.18 0.22 0.25 0.28 0.31 0.31 0.30 0.34 0.40 0.43 0.45 0.45 0.50 0.57 0.57 0.55 0.60 0.66 0.68 0.70 0.78 0.85 0.94 1.03 1.15 1.33 1.38 1.37 1.44 1.53 1.59 1.63 1.75 1.85 1.53 1.71 1.41 1.29 1.11 1.17 1.19
0.30 0.27 0.20 0.22 0.28 0.29 0.30 0.36 0.40 0.40 0.40 0.44 0.45 0.48 0.54 0.58 0.56 0.55 0.59 0.67 0.74 0.74 0.82 0.92 0.93 0.92 0.95 0.98 1.07 1.13 1.22 1.42 1.63 1.67 1.62 1.86 1.60 1.48 1.68 1.39 1.19 1.10 1.17 1.21
0.37 0.27 0.27 0.33 0.37 0.36 0.34 0.39 0.54 0.48 0.49 0.52 0.50 0.52 0.54 0.63 0.65 0.67 0.73 0.80 0.86 0.94 1.01 0.81 0.77 0.82 0.86 0.91 1.01 1.07 1.13 1.25 1.35 1.58 1.58 1.68 1.63 1.41 1.59 1.45 1.20 1.19 1.25 1.27
0.44 0.32 0.25 0.34 0.48 0.56 0.54 0.41 0.61 0.60 0.54 0.52 0.51 0.43 0.51 0.65 0.69 0.75 0.85 0.93 0.92 0.94 0.93 0.93 0.83 0.87 0.94 1.04 1.10 1.10 1.21 1.31 1.48 1.53 1.53 1.53 1.51 1.55 1.51 1.47 1.35 1.40 1.37 1.42
0.50 0.36 0.40 0.55 0.61 0.66 0.40 0.42 0.70 0.67 0.60 0.57 0.52 0.58 0.71 0.77 0.77 0.85 0.90 0.94 1.00 1.03 0.99 0.97 1.02 1.05 1.01 1.09 1.13 1.29 1.33 1.48 1.47 1.50 1.51 1.58 1.59 1.63 1.52 1.40 1.38 1.34 1.32 1.27
0.61 0.43 0.38 0.71 0.64 0.46 0.58 0.73 0.76 0.73 0.69 0.66 0.73 0.77 0.78 0.80 0.75 0.77 0.82 0.90 0.94 0.92 0.99 1.04 1.04 1.10 1.13 1.14 1.38 1.34 1.43 1.51 1.51 1.46 1.50 1.55 1.53 1.53 1.50 1.42 1.35 1.28 1.31 1.21
0.69 0.60 0.79 0.84 0.77 0.83 0.81 0.70 0.73 0.73 0.77 0.79 0.75 0.77 0.81 0.79 0.83 0.88 0.92 0.95 1.02 1.02 1.04 1.05 1.11 1.20 1.12 1.22 1.31 1.40 1.48 1.46 1.46 1.50 1.47 1.53 1.47 1.46 1.41 1.40 1.29 1.20 1.17 1.08
0.74 0.80 0.78 0.82 0.85 0.87 0.86 0.81 0.84 0.87 0.84 0.86 0.86 0.90 0.92 0.97 0.95 0.95 0.98 0.97 1.05 1.08 1.10 1.17 1.16 1.23 1.26 1.32 1.37 1.45 1.40 1.43 1.47 1.45 1.41 1.41 1.41 1.40 1.39 1.33 1.26 1.24 1.15 1.12
0.74 0.83 0.85 0.86 0.90 0.90 0.89 0.89 0.89 0.90 0.91 0.90 0.90 0.94 0.95 0.96 1.03 1.01 1.01 1.03 1.05 1.04 1.03 1.05 1.14 1.20 1.33 1.37 1.44 1.41 1.37 1.35 1.37 1.41 1.41 1.37 1.33 1.31 1.37 1.33 1.23 1.06 1.14 1.09
0.57 0.78 0.77 0.82 0.97 0.98 0.93 0.90 0.91 0.88 0.84 0.86 0.87 0.86 0.89 0.84 0.91 1.00 0.97 0.94 0.93 0.99 0.99 0.99 1.05 1.14 1.25 1.27 1.26 1.21 1.18 1.12 1.22 1.26 1.24 1.13 1.08 1.10 1.18 1.10 1.10 1.16 1.18 1.15
0.74 0.80 0.81 0.85 0.88 0.92 0.88 0.85 0.85 0.81 0.78 0.79 0.81 0.81 0.82 0.80 0.82 0.85 0.87 0.92 0.94 0.95 0.94 0.94 0.99 1.05 1.14 1.21 1.23 1.16 1.05 1.05 1.08 1.02 1.03 1.08 1.04 0.93 0.81 0.97 1.09 1.11 1.14 1.09
0.90 0.84 0.79 0.84 0.83 0.90 0.88 0.85 0.83 0.82 0.80 0.76 0.74 0.75 0.74 0.71 0.71 0.69 0.65 0.68 0.82 0.97 0.96 0.99 1.00 1.01 1.18 1.22 1.12 1.03 0.98 0.96 0.95 0.97 0.95 0.92 0.90 0.89 0.96 0.99 0.97 0.96 1.00 0.97
0.94 0.98 0.99 0.99 0.94 0.89 0.82 0.75 0.70 0.68 0.66 0.65 0.68 0.66 0.62 0.55 0.52 0.54 0.60 0.65 0.76 0.89 0.98 1.01 0.97 1.00 1.05 1.02 0.98 0.96 0.94 0.94 0.93 0.94 0.94 0.95 0.96 0.97 0.98 1.02 0.96 0.91 0.93 0.94
0.90 0.90 0.87 0.80 0.76 0.73 0.69 0.66 0.60 0.59 0.57 0.54 0.50 0.48 0.44 0.42 0.41 0.44 0.53 0.57 0.57 0.59 0.82 1.02 0.95 0.96 0.96 0.96 0.93 0.94 1.09 1.10 1.07 1.01 0.99 0.97 0.94 0.94 0.95 0.94 0.92 0.91 0.88 0.88
0.64 0.60 0.62 0.61 0.61 0.60 0.58 0.57 0.52 0.49 0.49 0.47 0.48 0.51 0.49 0.46 0.44 0.39 0.43 0.54 0.61 0.70 0.92 1.01 0.98 0.99 1.02 1.06 1.10 1.08 1.12 1.09 1.03 0.95 0.91 0.89 0.90 0.90 0.92 0.93 0.90 0.88 0.90 0.92
0.71 0.67 0.64 0.58 0.52 0.49 0.49 0.51 0.53 0.55 0.55 0.60 0.60 0.57 0.56 0.58 0.53 0.50 0.51 0.57 0.64 0.73 0.87 0.96 0.99 1.06 1.17 1.20 1.19 1.16 1.11 0.99 0.99 0.99 0.99 0.94 0.96 0.94 0.93 0.91 0.91 0.91 0.87 0.84
0.65 0.60 0.60 0.60 0.60 0.58 0.56 0.56 0.57 0.58 0.60 0.60 0.56 0.54 0.60 0.66 0.69 0.67 0.69 0.69 0.74 0.78 0.91 1.03 1.09 1.12 1.11 1.11 1.09 1.08 1.01 0.98 0.95 0.92 0.91 0.91 0.92 0.93 0.94 0.92 0.90 0.87 0.82 0.80
0.66 0.67 0.65 0.63 0.61 0.58 0.56 0.59 0.60 0.59 0.60 0.59 0.57 0.56 0.60 0.70 0.75 0.78 0.83 0.79 0.84 0.91 0.98 1.00 1.02 1.03 1.04 1.07 1.06 1.02 0.99 0.94 0.89 0.88 0.88 0.89 0.89 0.89 0.88 0.84 0.81 0.79 0.83 0.84
0.65 0.65 0.62 0.61 0.61 0.63 0.63 0.65 0.63 0.60 0.63 0.66 0.62 0.61 0.65 0.74 0.78 0.81 0.79 0.78 0.89 0.97 1.01 1.03 1.03 1.04 1.06 1.04 1.02 0.98 0.90 0.82 0.77 0.77 0.77 0.78 0.79 0.77 0.72 0.74 0.74 0.75 0.76 0.76
0.66 0.64 0.63 0.62 0.60 0.60 0.67 0.73 0.75 0.71 0.71 0.75 0.77 0.80 0.81 0.78 0.80 0.81 0.87 0.83 0.92 0.99 1.00 0.99 0.98 0.97 0.93 0.88 0.83 0.77 0.73 0.73 0.73 0.70 0.67 0.67 0.64 0.63 0.62 0.61 0.60 0.61 0.63 0.66
0.63 0.62 0.62 0.62 0.61 0.61 0.67 0.74 0.80 0.80 0.79 0.83 0.82 0.81 0.80 0.83 0.86 0.80 0.77 0.92 0.95 0.96 0.94 0.94 0.93 0.88 0.84 0.80 0.75 0.72 0.69 0.65 0.62 0.57 0.55 0.56 0.57 0.57 0.56 0.54 0.54 0.54 0.55 0.57
0.64 0.61 0.63 0.64 0.65 0.63 0.60 0.70 0.80 0.88 0.87 0.86 0.87 0.86 0.81 0.75 0.78 0.88 0.95 0.95 0.94 0.93 0.88 0.86 0.87 0.87 0.84 0.80 0.74 0.69 0.64 0.60 0.56 0.50 0.45 0.48 0.54 0.58 0.60 0.58 0.53 0.52 0.54 0.55
0.65 0.64 0.62 0.59 0.56 0.59 0.59 0.64 0.66 0.70 0.73 0.73 0.73 0.75 0.73 0.70 0.66 0.71 0.77 0.80 0.83 0.83 0.81 0.82 0.83 0.81 0.77 0.74 0.68 0.63 0.58 0.55 0.53 0.49 0.46 0.45 0.44 0.45 0.46 0.47 0.48 0.49 0.50 0.49
0.63 0.59 0.59 0.60 0.57 0.57 0.59 0.57 0.53 0.55 0.57 0.59 0.59 0.59 0.60 0.62 0.62 0.63 0.66 0.66 0.67 0.67 0.70 0.74 0.73 0.71 0.70 0.69 0.66 0.63 0.59 0.58 0.57 0.54 0.50 0.46 0.44 0.44 0.45 0.46 0.46 0.45 0.44 0.46
0.63 0.62 0.59 0.54 0.52 0.54 0.54 0.53 0.53 0.52 0.56 0.56 0.53 0.56 0.58 0.59 0.59 0.61 0.62 0.58 0.61 0.62 0.63 0.62 0.62 0.65 0.65 0.65 0.64 0.63 0.60 0.57 0.56 0.54 0.51 0.47 0.45 0.45 0.45 0.45 0.45 0.44 0.44 0.43
Wind_Speed
37 31 30 29 31 32 30 28 24 26 25 23 21 21 20 20 18 18 18 18 19 18 17 17 18 19 20 21 22 24 26 28 30 33 36 34 32 27 24 24 24 24 23 23
32 32 33 32 27 29 30 24 26 23 24 24 20 17 17 21 20 20 19 19 19 17 17 17 18 19 19 21 23 24 25 27 29 31 32 35 30 26 26 24 25 25 25 24
27 26 27 29 36 30 28 26 25 25 25 19 20 20 20 20 21 22 21 19 19 19 18 19 19 20 21 23 24 25 27 26 26 28 28 30 28 29 27 26 26 27 26 26
26 20 24 30 29 32 29 24 25 24 24 23 20 19 17 18 22 22 20 19 19 18 18 19 19 20 20 20 21 23 25 25 26 27 27 29 28 29 27 26 26 25 27 28
18 23 22 22 22 24 25 22 21 23 22 22 18 15 16 18 20 21 19 19 19 17 17 16 16 17 17 17 19 20 22 24 25 26 27 28 27 24 25 25 25 24 25 27
14 19 22 22 22 22 22 17 16 19 21 21 20 16 16 16 17 18 18 18 16 15 16 17 17 16 17 17 19 22 22 24 24 25 25 26 25 25 24 24 25 26 26 25
15 17 19 18 20 21 21 21 16 16 17 17 16 17 15 12 8 12 15 16 17 16 16 17 17 18 19 20 24 24 25 24 23 23 24 24 24 24 24 23 23 24 26 27
13 14 15 15 20 24 23 23 14 12 12 11 11 14 14 11 9 11 13 15 16 17 18 19 20 22 25 28 26 24 23 23 24 24 23 23 23 23 24 24 26 27 27 28
13 13 13 14 17 20 20 19 19 14 11 12 11 11 12 12 11 13 14 15 17 18 21 25 27 28 29 30 28 25 24 23 24 23 21 22 22 22 23 24 24 23 26 27
12 9 13 14 16 16 16 16 15 14 12 11 11 11 12 12 13 14 15 18 21 24 27 27 27 27 26 26 25 23 22 21 20 19 19 19 19 21 22 22 24 26 26 27
16 18 15 14 15 16 15 13 11 10 11 12 12 13 14 16 17 19 21 23 25 27 26 26 27 26 25 24 22 20 20 21 21 21 20 21 22 23 23 22 27 25 25 25
22 25 21 21 16 15 14 12 11 10 12 13 14 16 17 17 19 21 22 22 21 23 24 24 23 23 21 20 19 19 21 21 21 21 21 21 22 23 24 24 24 24 25 24
16 19 17 17 16 14 13 12 11 10 11 14 14 16 17 18 20 21 22 24 25 25 24 22 20 19 18 19 19 19 19 18 19 20 23 23 23 22 21 21 22 23 23 23
15 17 14 14 14 11 11 13 13 14 14 13 15 15 18 20 19 20 22 24 22 22 21 20 19 19 19 19 19 18 18 19 21 23 23 24 24 23 22 23 23 23 24 24
13 13 12 11 10 10 9 10 11 11 12 13 15 17 19 21 22 23 23 23 22 22 22 21 21 21 20 19 19 20 21 23 23 23 23 22 22 22 23 24 23 23 23 24
13 11 10 7 6 6 7 10 12 15 17 18 20 21 22 24 24 25 24 23 23 24 23 22 22 22 21 21 21 21 21 20 20 21 20 20 20 20 21 22 23 24 25 24
10 6 6 7 8 9 11 13 15 17 18 18 19 21 23 24 24 24 23 23 23 22 22 22 22 21 21 21 21 20 19 20 20 19 20 20 22 23 22 23 23 23 22 22
8 8 9 10 11 12 14 15 16 17 18 19 20 20 20 20 21 21 22 21 21 21 20 21 21 20 20 20 19 20 20 21 22 21 23 23 23 22 22 21 20 19 20 20
8 9 10 10 12 13 15 15 16 17 17 18 18 19 19 19 20 20 20 19 19 19 19 19 19 20 21 22 21 21 22 21 20 21 22 21 21 20 19 19 19 19 20 19
8 9 10 12 13 14 15 16 15 16 16 17 17 17 18 18 18 18 17 16 16 16 17 17 18 18 18 18 19 20 19 19 20 20 19 18 17 17 18 18 19 20 19 20
8 9 10 11 12 12 13 14 14 15 15 15 15 15 15 15 14 13 14 14 15 15 15 14 14 14 14 16 16 17 17 17 17 16 16 16 16 17 17 18 18 18 18 19
9 10 10 11 12 12 13 13 13 13 13 13 12 12 12 13 13 13 12 12 12 11 11 11 12 13 14 14 15 15 15 15 15 16 16 16 16 16 16 16 17 17 17 16
9 9 10 10 11 12 12 12 12 11 11 10 10 11 11 11 11 11 11 11 11 11 10 10 11 11 11 12 12 12 13 14 15 17 18 18 19 18 17 17 17 17 17 17
9 9 10 11 12 12 11 10 10 9 9 10 10 11 11 11 11 11 11 12 12 12 12 13 13 13 13 14 14 14 15 16 16 17 16 16 16 17 18 18 18 18 18 18
9 9 9 10 10 10 10 10 10 10 11 11 12 11 11 11 12 12 12 12 13 13 14 15 15 15 16 16 16 16 16 16 16 16 16 16 16 17 17 18 19 19 20 19
10 10 11 11 11 10 10 11 12 12 11 11 11 11 11 12 12 12 12 12 13 13 14 15 16 16 17 17 18 18 18 18 18 18 18 19 19 18 19 19 19 20 20 20
10 10 10 10 10 10 11 10 11 11 11 12 13 14 15 15 15 15 15 15 15 15 16 16 17 18 19 19 20 20 20 20 20 21 21 21 20 21 21 21 20 20 19 19
Wind_Direction
225 220 220 224 221 220 224 231 233 245 238 242 237 237 239 229 227 225 224 225 227 232 233 237 241 242 249 256 258 260 261 260 260 260 261 257 249 254 259 260 265 269 272 276
227 221 220 225 223 219 224 230 242 243 240 239 241 234 234 229 230 228 225 231 230 235 236 243 246 247 257 262 263 265 265 266 266 265 263 255 265 257 261 260 265 268 269 273
232 220 220 227 226 222 225 229 231 232 237 232 231 234 233 231 231 227 231 238 233 235 242 248 252 257 265 268 267 270 270 270 270 267 267 257 262 277 259 262 268 268 267 270
233 221 220 229 223 224 224 230 233 236 232 231 233 234 240 241 234 233 235 238 236 240 249 253 260 264 270 271 271 272 270 271 269 267 271 253 264 274 260 266 266 267 269 269
226 215 225 223 217 213 213 226 234 232 228 229 224 230 243 250 243 238 240 237 234 243 251 255 259 270 271 275 277 276 278 274 272 267 269 269 269 266 266 266 266 269 273 276
239 214 215 219 219 214 217 219 228 225 221 221 225 235 247 253 246 233 228 227 230 242 248 261 269 269 274 278 281 282 282 279 275 271 269 272 271 269 267 267 267 269 270 281
231 221 224 217 221 211 207 217 224 224 221 222 230 228 229 226 218 210 216 224 235 243 258 261 268 270 273 277 285 285 284 277 279 277 272 273 275 266 269 266 268 272 273 276
219 212 213 231 217 211 207 203 200 205 212 207 212 213 214 213 223 227 226 232 242 252 259 263 270 273 275 286 284 285 281 279 280 278 274 274 272 268 268 266 271 277 273 282
217 210 218 208 192 185 190 193 206 209 205 199 204 217 220 231 236 236 239 247 254 263 266 276 281 279 279 279 281 278 277 279 278 276 274 271 273 270 269 269 268 280 279 286
199 194 189 181 182 183 187 188 193 199 217 219 217 230 235 243 248 250 256 260 266 272 280 278 280 279 278 279 277 273 274 275 274 268 271 274 275 275 270 271 273 281 281 284
200 197 189 188 195 199 190 185 193 208 218 224 231 241 249 256 260 263 272 276 276 275 278 279 277 278 275 275 270 269 270 270 268 273 268 272 277 281 270 268 283 282 282 284
219 210 214 207 207 199 188 197 216 232 245 251 252 258 262 267 272 271 273 278 282 280 281 280 280 277 273 267 265 265 271 270 268 270 272 276 280 284 279 277 279 281 285 285
206 200 196 201 199 203 210 219 230 242 249 252 259 262 265 268 273 274 274 280 277 280 281 281 278 274 271 269 270 271 272 269 267 270 277 275 278 280 277 281 282 284 283 284
182 185 187 205 212 218 224 235 246 249 254 265 267 270 268 273 276 281 281 280 278 275 276 276 274 274 271 269 271 271 270 267 272 280 279 278 277 277 278 280 283 283 287 288
176 181 188 199 209 216 228 245 249 259 266 274 276 278 279 281 282 282 283 280 275 274 272 270 272 271 268 267 268 273 272 274 278 279 280 278 277 277 278 279 278 283 286 288
162 164 175 182 197 223 249 260 263 270 277 279 281 281 282 282 281 281 281 278 273 271 269 266 268 266 264 266 271 273 276 275 278 280 281 280 281 282 280 280 281 283 286 287
185 198 226 239 255 265 273 274 274 277 281 284 282 283 286 286 284 281 281 280 276 274 267 262 264 265 265 268 268 269 270 276 278 278 279 279 281 283 282 280 282 283 284 286
212 230 250 260 270 274 278 282 281 280 282 283 286 287 290 289 284 283 282 279 276 271 267 265 263 263 264 267 267 268 271 277 278 278 281 283 282 282 282 280 280 279 284 286
251 261 269 273 276 278 280 282 283 283 282 283 284 286 287 289 288 285 282 279 276 272 270 266 260 263 267 267 267 269 274 277 278 280 283 282 281 278 277 280 281 282 282 281
264 270 276 283 286 285 284 283 283 284 285 286 284 287 291 292 290 286 284 279 275 272 270 268 267 268 268 268 268 273 276 277 280 282 282 280 278 278 279 281 282 284 280 281
273 278 283 288 291 293 293 289 288 288 291 289 288 290 292 293 294 288 284 282 280 277 272 267 263 267 270 272 273 274 275 277 280 282 281 281 281 280 282 283 284 284 284 283
277 281 286 292 296 297 296 294 295 294 293 294 296 294 292 292 291 286 282 282 282 274 271 270 267 267 271 274 277 278 278 279 279 280 281 281 282 282 283 285 286 287 286 285
282 283 288 294 298 302 304 301 297 295 294 294 295 298 298 296 294 289 287 286 280 276 272 270 272 274 275 277 278 278 279 280 282 283 283 282 279 278 280 283 286 287 286 286
294 292 291 299 299 295 297 302 301 296 288 293 293 293 295 298 297 289 284 284 279 273 275 274 274 274 274 277 279 281 284 285 286 288 287 286 284 275 277 283 284 286 286 287
299 297 297 308 312 298 294 296 300 296 292 291 291 291 293 296 293 293 291 287 281 277 277 275 274 274 275 277 279 282 283 283 285 287 285 284 284 282 282 283 284 284 284 283
299 295 299 299 303 302 294 295 294 296 293 286 289 289 291 297 298 295 289 287 285 282 278 278 277 277 276 276 278 279 280 281 281 284 286 283 281 281 282 283 285 286 283 280
300 298 295 296 300 301 300 296 297 297 296 293 291 293 288 289 290 290 286 285 283 282 282 281 281 278 277 277 278 278 279 279 279 281 283 282 279 280 281 281 281 283 284 281